RH
18 22 20 20 26 31 27 17 10 8 7 6 6 12 19 26 39 59 45 56 45 55 54 56 48 45 46 46 39 37 35 34 37 45 56 60 61 58 52 51 50 47 46 50 58 56 59 65 68
23 23 21 20 36 38 30 18 8 8 6 6 7 10 23 38 46 53 58 56 52 58 66 65 62 57 51 53 45 40 37 36 38 42 55 61 62 61 58 55 54 53 60 61 65 67 68 66 70
22 22 22 35 42 37 30 19 19 9 12 9 7 25 27 32 51 44 47 64 54 76 78 76 73 66 59 56 50 44 41 39 38 43 53 62 63 63 61 58 57 58 59 62 62 66 68 70 71
20 22 22 32 34 26 21 18 13 10 13 14 23 33 24 23 22 23 28 39 60 73 82 79 79 70 67 62 53 46 44 44 41 44 52 60 62 64 63 61 59 62 62 62 65 63 62 67 68
18 22 34 34 30 22 12 14 15 17 16 14 24 31 26 18 20 22 23 24 29 35 62 81 83 89 78 69 60 52 47 47 45 45 53 57 60 62 65 65 62 64 65 64 66 64 64 68 68
17 20 30 29 22 16 11 12 11 14 9 10 16 28 21 9 12 11 13 19 25 23 20 36 64 76 86 86 65 57 52 50 48 47 52 56 59 62 67 67 66 67 65 66 65 65 65 70 70
19 28 27 22 20 12 10 11 11 10 8 8 8 22 13 9 8 8 8 9 14 25 15 19 28 36 62 79 79 65 58 56 54 51 52 55 57 61 69 70 70 70 64 67 66 65 66 73 73
9 17 15 14 14 11 8 8 6 6 9 6 7 10 15 10 9 9 8 7 8 9 9 9 46 45 47 66 75 73 64 60 59 57 55 56 59 62 69 74 74 72 66 65 66 68 68 73 72
8 17 20 15 8 7 7 8 7 7 7 7 8 8 9 9 9 9 9 8 8 8 9 10 16 62 83 69 71 77 69 65 64 62 59 59 60 63 70 75 76 75 68 65 64 69 70 71 72
9 17 13 12 8 9 8 8 9 8 8 8 8 9 9 9 9 9 10 12 12 11 12 14 14 14 27 78 82 80 78 70 66 64 62 60 60 64 64 71 75 77 71 66 67 69 70 71 68
9 12 9 8 8 9 8 8 8 9 11 9 9 9 9 9 11 12 14 14 15 15 13 14 14 13 15 16 69 91 82 85 75 68 64 61 64 66 70 74 76 78 75 67 68 70 67 68 67
12 9 9 9 9 9 9 8 9 9 9 9 9 9 11 11 14 20 18 18 14 12 13 12 13 13 13 13 14 38 94 88 91 84 71 66 62 67 66 73 73 75 72 66 65 64 67 69 65
12 11 13 12 12 11 10 10 10 10 9 8 9 11 16 17 23 30 33 28 24 19 15 14 14 14 13 13 13 15 18 83 87 88 94 82 67 62 66 70 72 71 72 66 65 65 69 71 63
15 16 15 13 13 12 12 12 11 9 8 9 14 31 31 26 29 31 26 28 28 28 26 24 21 17 19 18 16 16 18 27 78 88 91 92 81 66 66 70 68 67 70 68 67 66 68 72 62
16 18 18 15 12 13 12 14 13 9 9 29 38 42 40 41 35 37 35 28 25 24 23 21 21 24 23 22 21 20 16 17 34 66 88 95 80 74 71 74 72 65 73 81 79 74 74 76 69
22 21 24 18 15 13 12 19 13 8 22 42 44 43 42 42 42 37 32 29 29 26 23 22 22 20 21 23 24 24 24 17 15 18 50 86 94 78 74 79 78 69 78 83 85 82 76 78 74
27 30 27 21 13 11 12 16 12 17 38 50 51 47 44 38 34 35 34 31 27 28 31 30 30 29 25 24 24 26 27 31 20 20 34 70 93 92 79 78 81 84 86 88 83 86 82 82 83
26 28 22 19 14 17 19 21 18 46 49 57 58 53 49 47 46 42 37 34 32 34 38 39 39 44 41 35 30 28 29 31 32 22 18 64 82 94 84 80 80 85 93 95 84 86 84 82 80
28 26 22 21 19 20 22 20 41 55 57 64 64 63 62 61 59 54 50 46 44 46 48 50 49 47 54 49 42 37 34 32 33 26 17 30 80 88 93 86 82 84 91 85 81 88 87 87 83
29 23 26 25 21 22 22 36 55 54 61 66 70 71 72 68 66 64 60 57 59 61 59 55 57 60 64 61 57 53 46 40 34 33 19 24 55 90 92 92 81 82 90 86 81 85 88 89 84
26 24 24 26 28 29 29 36 59 54 59 67 75 76 78 82 83 76 70 70 66 65 61 62 65 70 69 65 65 59 56 49 49 42 32 37 62 61 96 97 92 78 84 89 84 84 84 89 84
33 22 24 33 41 49 35 59 61 60 68 70 79 84 83 86 84 77 76 69 66 68 69 76 80 82 82 80 80 77 73 64 50 54 47 35 61 71 74 99 96 89 77 87 81 87 85 85 77
26 26 31 33 40 46 42 66 62 61 73 80 80 86 85 86 82 73 71 72 72 76 79 86 86 89 98 97 99 94 99 96 98 64 54 46 38 52 69 80 100 98 84 82 84 90 94 88 79
25 31 38 41 47 75 48 55 79 89 89 80 82 86 87 83 80 73 74 80 80 84 95 90 88 85 94 93 99 100 99 100 100 94 53 51 43 36 41 74 85 99 94 85 89 85 91 91 86
28 46 75 77 84 74 44 60 90 85 81 82 84 84 90 86 83 81 83 85 92 98 95 95 88 91 100 100 99 99 100 99 98 99 74 66 48 42 48 48 72 86 99 92 91 93 93 91 92
36 44 70 75 80 78 44 61 91 78 75 78 82 87 92 93 94 86 89 91 96 98 96 94 92 96 98 97 99 100 100 100 99 98 93 72 50 43 64 58 55 88 86 100 92 96 98 98 99
35 45 35 59 62 88 80 87 75 72 78 86 87 88 93 97 95 92 87 92 99 96 100 96 98 98 95 100 98 100 100 100 100 98 100 99 68 58 93 74 46 58 73 100 99 97 100 99 98
30 30 55 80 77 91 85 91 95 94 95 91 93 95 91 88 90 90 89 94 99 99 99 97 98 98 100 100 100 96 100 99 100 100 99 98 97 98 100 58 50 74 98 91 98 99 100 97 100
41 45 57 64 80 90 96 88 88 91 96 96 94 86 87 85 90 87 92 87 86 97 92 98 98 96 96 99 97 97 100 100 100 100 99 99 97 100 99 84 66 65 98 97 100 100 99 97 99
39 49 52 86 75 88 93 90 88 91 87 85 86 81 85 79 77 75 82 93 78 75 86 89 98 96 97 99 92 96 97 98 99 100 100 100 100 97 94 73 63 95 96 100 98 100 100 99 100
Wind_Speed
1 3 5 2 4 5 2 5 2 0 2 2 5 15 8 14 5 8 6 13 9 9 4 1 6 10 10 10 10 10 10 11 11 12 13 12 11 9 9 8 7 8 10 11 10 10 9 8 5
3 1 3 2 4 3 5 5 6 7 3 6 13 18 18 11 17 14 17 14 9 10 10 4 4 10 12 10 10 11 11 11 11 12 13 14 13 11 10 9 8 9 9 10 10 9 9 8 6
5 3 3 4 3 3 3 3 8 10 19 7 4 20 8 3 19 9 18 14 10 13 11 10 12 10 14 13 11 11 11 12 12 13 14 14 14 12 11 11 10 9 9 10 10 9 8 8 8
6 2 3 4 5 4 3 11 13 1 15 20 27 12 21 14 14 16 16 20 15 13 11 11 12 10 11 12 12 12 12 12 12 13 14 14 14 14 13 13 12 10 9 10 9 9 8 8 8
6 2 4 1 2 3 3 17 16 11 5 16 20 7 12 19 15 12 15 17 15 17 13 11 12 11 8 12 14 14 14 13 13 13 14 14 15 15 15 14 13 12 10 10 10 9 9 9 9
3 2 4 3 2 5 2 15 16 12 14 13 13 8 11 17 12 13 11 13 15 13 16 14 10 13 13 12 15 16 16 15 14 14 15 15 15 15 16 15 15 14 12 11 11 10 9 9 11
4 4 4 4 3 2 4 7 12 6 17 15 10 4 9 20 18 10 8 9 9 11 15 16 14 14 15 14 15 18 18 17 16 16 16 16 16 16 17 17 17 15 13 12 11 11 10 11 11
1 4 1 3 2 1 4 3 13 13 4 9 15 4 1 20 19 17 13 11 10 8 14 18 11 15 16 14 15 19 20 20 18 18 18 18 17 18 18 18 18 17 15 13 12 12 11 12 12
3 4 2 4 0 3 4 4 7 6 11 9 13 14 19 18 18 19 16 14 12 8 13 16 14 13 18 19 16 14 22 22 21 20 20 20 20 20 20 20 19 18 16 15 14 14 13 13 12
3 3 6 5 0 4 5 7 5 4 10 6 19 14 15 17 19 19 17 14 13 13 12 12 13 19 19 17 20 19 19 24 24 23 22 22 21 22 22 22 21 20 18 16 16 16 15 14 13
2 6 6 12 14 2 3 5 7 9 2 16 18 19 16 15 12 12 11 10 15 15 13 16 17 16 15 20 20 22 22 23 26 26 25 24 24 24 24 24 24 23 21 19 19 19 18 16 15
3 7 5 7 9 4 4 7 12 9 13 18 16 14 8 8 8 12 11 10 7 15 20 22 23 25 24 21 15 22 26 26 25 24 28 28 28 27 27 27 27 26 25 23 22 21 18 17 16
4 4 15 16 15 13 7 7 7 14 21 11 14 5 8 11 9 10 12 11 13 13 18 22 26 27 30 28 23 20 25 28 29 29 26 29 31 31 30 30 30 28 27 26 25 23 21 19 19
9 17 19 15 20 15 5 10 5 18 15 14 8 15 14 10 9 9 14 18 19 22 21 21 22 27 29 31 27 27 25 24 30 33 33 28 33 34 34 33 32 31 29 28 27 25 23 21 22
16 7 9 16 18 5 3 3 8 18 10 23 21 18 16 16 11 17 20 24 28 31 34 33 29 26 32 32 31 29 30 30 29 32 36 34 28 36 36 37 36 32 30 27 27 26 23 23 24
5 3 4 6 5 5 9 6 9 13 13 22 18 14 13 16 20 21 24 26 29 31 34 36 38 39 35 38 37 33 30 32 32 31 34 38 37 33 37 40 40 36 32 29 28 28 27 27 28
3 3 4 9 6 3 3 5 6 3 25 20 16 14 14 17 20 26 29 31 34 37 38 40 40 39 41 39 41 37 32 25 33 33 31 37 41 40 35 41 42 39 35 33 30 28 30 29 27
3 3 4 5 6 3 3 6 3 17 26 18 16 17 21 25 28 31 33 35 37 39 39 38 41 44 41 40 41 44 37 32 26 30 33 34 40 42 40 38 42 41 38 37 34 31 31 29 27
7 6 5 5 8 3 5 3 8 12 21 18 20 23 26 29 30 32 36 38 39 40 40 40 41 42 44 37 38 42 43 39 32 31 34 34 36 42 43 44 42 44 42 39 38 35 34 32 29
11 7 7 5 5 4 3 2 5 8 11 16 17 21 26 31 34 36 39 40 42 44 43 43 42 41 40 34 31 36 39 41 40 30 36 34 38 35 42 45 46 46 45 42 42 40 38 36 33
6 5 4 7 3 4 3 2 4 6 15 14 14 17 23 26 31 38 41 42 43 43 44 43 41 41 39 34 32 32 34 41 38 36 33 33 32 40 35 49 49 47 46 46 45 43 41 41 38
12 7 7 4 5 2 4 5 4 4 7 10 13 19 26 30 33 37 40 44 44 42 39 39 39 39 38 33 34 30 33 37 37 39 37 39 32 35 41 38 48 51 49 50 47 44 42 42 42
4 2 2 2 4 3 6 2 2 2 2 7 15 21 27 30 34 38 40 41 40 38 37 37 36 36 35 33 30 30 32 32 34 39 41 38 40 32 39 45 39 55 54 55 50 49 46 47 43
3 2 6 3 2 3 6 7 2 3 3 5 10 18 26 31 34 35 35 37 38 37 36 36 35 35 36 33 31 27 28 31 33 37 41 40 40 43 36 40 43 53 51 57 57 52 50 49 46
4 5 3 4 1 5 1 1 1 4 4 5 11 21 24 30 32 35 36 38 37 38 37 37 36 35 34 30 26 23 24 26 28 27 35 38 39 41 37 35 35 46 31 54 55 53 49 48 48
5 7 4 5 3 4 10 5 3 7 5 7 11 14 18 28 29 31 33 35 35 36 36 36 33 35 32 27 23 21 20 23 26 24 27 32 32 34 25 29 32 31 39 55 54 55 51 50 48
3 4 7 5 0 2 3 3 6 6 4 8 13 16 21 25 28 30 32 33 35 36 37 35 35 33 32 29 21 18 17 16 19 20 19 24 21 20 22 23 31 41 33 50 54 52 49 51 44
4 3 3 2 1 4 2 3 3 0 5 5 8 13 20 22 25 28 31 33 34 35 36 33 34 34 34 31 26 17 15 11 9 17 19 14 19 22 22 20 23 18 38 55 54 50 48 42 45
4 2 1 3 4 3 2 4 2 4 4 1 5 11 15 20 23 27 29 31 35 36 37 36 37 36 39 38 32 29 20 4 3 9 19 16 19 15 9 4 14 20 20 37 48 46 41 41 39
8 10 4 3 4 1 2 4 3 6 7 5 6 9 13 19 21 24 27 31 36 38 40 39 38 38 39 40 34 33 31 24 19 21 26 26 25 23 22 18 25 9 21 23 45 38 39 41 39
Wind_Direction
343 294 315 19 45 62 280 271 265 244 316 337 22 89 92 48 81 130 7 8 21 18 30 316 251 235 220 207 197 183 182 182 181 179 181 184 190 195 189 186 179 162 158 158 162 165 171 178 192
44 22 10 37 81 37 281 251 19 301 235 111 70 106 61 66 72 54 27 13 22 48 56 33 306 269 234 221 210 194 188 187 189 188 185 187 193 197 195 191 183 178 168 167 171 175 181 182 177
24 13 52 89 109 181 242 327 289 271 18 8 85 49 33 358 63 60 42 39 58 56 47 19 353 287 228 224 215 205 197 195 196 197 192 192 196 199 198 197 192 192 181 180 175 175 180 172 166
16 16 75 101 215 263 330 311 303 257 28 44 112 82 71 80 72 63 50 49 46 39 40 19 5 1 253 234 222 214 206 206 204 205 201 196 200 202 202 201 199 199 194 190 184 179 178 174 166
18 31 54 322 262 247 65 20 53 58 35 25 89 106 92 64 64 53 24 22 36 31 13 8 358 353 313 263 241 224 213 212 212 214 211 205 205 207 205 204 203 205 203 200 191 186 179 177 172
41 73 56 256 259 304 89 39 38 39 40 40 82 100 72 54 51 31 29 19 19 18 14 3 330 323 313 299 257 241 224 218 217 221 221 215 212 213 210 207 207 208 209 207 199 193 186 181 174
117 87 208 251 240 10 10 9 41 20 24 16 14 97 116 18 22 15 1 4 22 20 360 351 352 340 343 299 275 246 236 227 224 225 226 224 218 217 215 212 210 211 211 210 207 200 195 185 182
2 91 256 262 277 224 5 48 14 33 31 6 20 52 135 349 357 351 347 334 340 352 357 352 333 336 334 330 316 252 240 235 229 228 227 227 223 220 217 215 213 213 213 212 212 206 200 193 192
304 50 241 253 57 326 352 41 22 355 348 354 360 342 337 356 2 6 10 353 337 350 345 358 352 323 322 324 322 286 247 240 237 231 229 226 223 220 218 217 216 216 216 214 213 207 205 201 200
134 125 238 218 91 320 344 25 18 16 330 330 333 348 353 355 350 359 17 15 8 7 353 355 352 345 339 295 306 304 266 251 244 238 234 232 226 225 223 220 217 219 220 217 215 208 209 206 206
216 214 236 270 293 304 333 351 345 352 306 319 320 328 337 353 353 11 19 9 353 347 322 327 326 316 333 331 300 281 285 265 250 244 238 235 230 225 223 221 217 217 218 219 215 212 212 208 205
317 259 245 293 314 350 332 329 321 302 291 312 312 320 352 44 38 28 11 2 322 302 311 306 310 311 305 306 308 305 276 270 258 249 244 237 231 226 224 222 222 222 223 221 220 218 214 211 203
230 296 314 307 303 309 299 287 277 282 293 300 300 337 80 76 51 24 13 356 341 313 298 296 302 303 299 297 295 294 296 274 262 257 251 247 237 230 226 223 224 227 226 224 222 219 215 211 202
313 323 314 305 290 283 249 277 293 274 292 314 97 89 78 67 32 352 344 346 340 333 318 306 297 294 296 293 287 285 286 288 275 261 253 250 243 235 228 224 224 226 227 226 223 221 218 213 206
308 309 322 281 265 251 96 304 225 248 291 100 81 70 60 44 23 11 355 347 340 334 328 318 303 285 288 288 285 280 276 276 279 271 256 246 243 237 232 228 225 225 223 223 223 221 220 214 206
329 15 338 303 78 255 150 260 257 259 111 82 75 65 45 21 13 359 349 341 339 330 321 315 309 300 287 279 278 276 274 269 271 272 269 250 239 242 236 229 227 223 221 222 223 220 215 211 205
334 268 248 320 24 43 90 243 252 87 103 78 64 43 19 2 354 350 345 339 333 329 326 319 311 302 293 284 274 267 266 266 260 265 266 260 244 237 237 230 227 225 221 222 220 215 212 206 204
195 243 245 269 298 33 279 257 38 77 90 78 56 29 12 2 354 345 342 339 333 329 326 319 313 311 303 291 278 269 261 256 252 254 257 255 255 239 230 232 229 226 222 223 218 216 211 207 205
273 258 246 269 261 272 278 268 25 70 72 59 38 21 8 360 350 346 346 343 337 334 331 327 320 312 310 302 286 273 262 254 249 246 248 256 254 249 234 230 231 228 222 219 218 217 216 208 204
245 257 284 271 275 312 232 110 111 81 81 73 45 19 6 355 350 347 348 345 343 338 336 332 327 321 316 308 291 281 274 258 257 247 244 247 252 251 244 231 231 229 224 220 218 216 213 213 205
251 236 245 259 330 321 315 245 156 112 94 67 37 19 6 358 349 349 347 345 342 340 337 333 329 327 324 315 300 285 278 269 259 253 238 242 246 249 250 232 230 231 227 223 218 216 213 210 210
269 242 264 309 22 250 85 283 176 170 82 49 22 10 3 358 352 350 347 345 343 341 337 334 332 329 327 321 309 294 285 276 264 257 245 239 243 243 247 251 233 232 229 224 220 216 216 214 214
243 224 237 260 275 318 175 251 347 145 358 21 9 5 360 353 353 352 349 344 342 343 340 339 333 329 331 320 308 298 288 279 273 258 253 242 245 245 239 246 248 236 232 228 224 220 217 218 218
280 10 338 317 146 294 215 188 269 343 341 333 355 2 357 355 355 353 349 347 347 347 345 343 339 335 332 321 307 297 295 289 281 272 257 252 249 250 253 247 242 233 232 230 227 226 220 219 220
147 66 332 323 16 230 218 312 354 107 49 24 4 353 350 355 357 356 354 353 352 352 352 351 347 342 339 328 311 301 289 286 282 280 262 260 251 258 272 277 260 254 235 232 230 225 220 220 218
169 160 169 245 228 260 347 280 258 122 93 41 14 347 352 357 360 359 359 358 358 360 358 359 357 357 353 337 323 311 296 281 279 274 271 264 261 265 280 279 267 252 267 222 226 225 219 217 216
196 194 225 237 114 37 188 103 183 144 67 33 5 351 360 357 356 0 4 4 5 6 4 4 4 4 2 0 345 323 308 288 275 267 256 255 249 253 256 275 279 256 265 218 219 223 224 220 223
204 165 14 350 313 251 221 216 234 188 331 7 352 349 357 357 0 5 9 10 13 14 12 11 15 15 18 16 14 0 334 306 274 255 241 228 225 222 232 253 274 315 224 215 218 219 223 220 218
344 323 225 177 154 220 258 261 142 156 195 255 332 351 0 2 7 8 10 17 18 22 21 19 21 24 26 26 27 25 25 38 110 175 221 210 190 167 165 213 237 264 213 205 206 212 219 224 224
290 302 215 163 237 198 169 259 128 152 139 72 331 351 12 13 20 16 16 19 25 25 29 25 26 30 33 37 39 38 39 60 81 102 119 154 161 143 109 82 47 176 207 170 198 197 209 215 214